• Join FlightAware (Why Join?)
  • Login
  • US Flag 
08:27AM EDT


 

Airport Tracker/Info


-or-


 

Live Flight TrackerFlight Track Log ✈ N400PU ✈ 26-Nov-2012 ✈ KLAF - KDAL

Flight Track Log - Related Links

Times and Time Zones

All times are in EST time to prevent confusion due to time zone crossing. See the N400PU flight status page for this flight to view local times or setup timezone preferences in your user account.

Time Position Orientation Groundspeed Altitude Reporting Facility
EST Latitude Longitude Course Direction KTS MPH feet Rate Location/Type
05:10PM 40.4142 -86.9719 225° Southwest 187 215 1,600  Level Chicago Center
05:12PM 40.3653 -87.0364 225° Southwest 203 234 6,100 3,120 Climbing Chicago Center
05:13PM 40.3122 -87.0928 219° Southwest 223 257 9,000 2,700 Climbing Chicago Center
05:14PM 40.2592 -87.1461 217° Southwest 232 267 11,600 2,520 Climbing Chicago Center
05:15PM 40.2081 -87.1969 217° Southwest 237 273 14,100 2,520 Climbing Chicago Center
05:16PM 40.1589 -87.2475 218° Southwest 237 273 16,700 2,400 Climbing Chicago Center
05:17PM 40.1056 -87.2953 214° Southwest 237 273 18,900 2,100 Climbing Chicago Center
05:17PM 40.0808 -87.3175 215° Southwest 236 272 20,000 1,980 Climbing Indianapolis Center
05:18PM 40.0269 -87.3717 218° Southwest 236 272 22,000 2,040 Climbing Indianapolis Center
05:19PM 39.9689 -87.4308 218° Southwest 242 278 24,100 2,100 Climbing Indianapolis Center
05:20PM 39.9172 -87.4822 217° Southwest 242 278 26,200 1,740 Climbing Indianapolis Center
05:21PM 39.8653 -87.5333 217° Southwest 242 278 27,600 1,380 Climbing Indianapolis Center
05:22PM 39.8072 -87.5867 215° Southwest 250 288 29,000 1,260 Climbing Indianapolis Center
05:23PM 39.7469 -87.6456 217° Southwest 260 299 30,200 1,200 Climbing Indianapolis Center
05:24PM 39.6883 -87.7069 219° Southwest 265 305 31,500 1,200 Climbing Indianapolis Center
05:25PM 39.6300 -87.7628 216° Southwest 265 305 32,700 1,140 Climbing Indianapolis Center
05:26PM 39.5717 -87.8211 218° Southwest 273 314 33,800 960 Climbing Indianapolis Center
05:27PM 39.5069 -87.8792 215° Southwest 278 320 34,700 900 Climbing Indianapolis Center
05:29PM 39.4211 -87.9683 219° Southwest 281 323 36,100 840 Climbing Kansas City Center
05:30PM 39.3578 -88.0278 216° Southwest 281 323 36,800 660 Climbing Kansas City Center
05:31PM 39.2964 -88.0869 217° Southwest 281 323 37,500 600 Climbing Kansas City Center
05:32PM 39.2347 -88.1461 217° Southwest 281 323 38,100 540 Climbing Kansas City Center
05:33PM 39.1692 -88.2081 216° Southwest 286 329 38,600 420 Climbing Kansas City Center
05:34PM 39.1058 -88.2697 217° Southwest 286 329 39,000 360 Climbing Kansas City Center
05:35PM 39.0403 -88.3314 216° Southwest 292 336 39,400 420 Climbing Kansas City Center
05:36PM 38.9767 -88.3931 217° Southwest 292 336 39,900 240 Climbing Kansas City Center
05:37PM 38.9089 -88.4547 215° Southwest 292 336 40,000  Climbing Kansas City Center
05:38PM 38.8411 -88.5164 215° Southwest 297 342 40,000  Level Kansas City Center
05:39PM 38.7714 -88.5833 217° Southwest 308 354 40,000  Level Kansas City Center
05:40PM 38.6975 -88.6506 215° Southwest 319 367 40,000  Level Kansas City Center
05:41PM 38.6239 -88.7203 217° Southwest 326 375 40,000  Level Kansas City Center
05:42PM 38.5578 -88.7811 216° Southwest 331 381 40,000  Level Kansas City Center
05:43PM 38.4719 -88.8594 216° Southwest 336 387 40,000  Level Kansas City Center
05:44PM 38.4042 -88.9256 217° Southwest 344 396 40,000  Level Kansas City Center
05:45PM 38.3161 -89.0064 216° Southwest 349 402 40,000  Level Kansas City Center
05:46PM 38.2481 -89.0694 216° Southwest 349 402 40,000  Level Kansas City Center
05:47PM 38.1600 -89.1500 216° Southwest 356 410 40,000  Level Kansas City Center
05:48PM 38.0919 -89.2156 217° Southwest 350 403 40,000  Level Kansas City Center
05:49PM 38.0056 -89.2928 215° Southwest 350 403 40,000  Level Kansas City Center
05:50PM 37.9333 -89.3583 216° Southwest 350 403 40,000  Level Kansas City Center
05:51PM 37.8492 -89.4378 217° Southwest 350 403 40,000  Level Kansas City Center
05:52PM 37.7728 -89.5061 215° Southwest 350 403 40,000  Level Kansas City Center
05:53PM 37.6944 -89.5794 217° Southwest 350 403 40,000  Level Kansas City Center
05:54PM 37.6139 -89.6503 215° Southwest 350 403 40,000  Level Kansas City Center
05:56PM 37.4700 -89.7819 216° Southwest 276 318 40,000  Level Memphis Center
05:57PM 37.3892 -89.8556 216° Southwest 319 367 40,000  Level Memphis Center
05:58PM 37.3103 -89.9292 217° Southwest 347 399 40,000  Level Memphis Center
05:59PM 37.2314 -89.9975 215° Southwest 357 411 40,000  Level Memphis Center
06:00PM 37.1544 -90.0706 217° Southwest 357 411 40,000  Level Memphis Center
06:01PM 37.0983 -90.1619 232° Southwest 347 399 40,000  Level Memphis Center
06:02PM 37.0444 -90.2608 236° Southwest 342 394 40,000  Level Memphis Center
06:03PM 36.9903 -90.3517 233° Southwest 342 394 40,000  Level Memphis Center
06:04PM 36.9361 -90.4478 235° Southwest 342 394 40,000  Level Memphis Center
06:05PM 36.8817 -90.5411 234° Southwest 342 394 40,000  Level Memphis Center
06:06PM 36.8275 -90.6342 234° Southwest 337 388 40,000  Level Memphis Center
06:07PM 36.7708 -90.7272 233° Southwest 337 388 40,000  Level Memphis Center
06:08PM 36.7186 -90.8203 235° Southwest 337 388 40,000  Level Memphis Center
06:09PM 36.6639 -90.9156 234° Southwest 337 388 40,000  Level Memphis Center
06:10PM 36.6092 -91.0083 234° Southwest 337 388 40,000  Level Memphis Center
06:11PM 36.5817 -91.0831 245° Southwest 302 348 40,000  Level Memphis Center
06:12PM 36.5061 -91.1806 226° Southwest 325 374 40,000  Level Memphis Center
06:13PM 36.4469 -91.2908 236° Southwest 342 394 40,000  Level Memphis Center
06:14PM 36.3900 -91.3831 233° Southwest 348 400 40,000  Level Memphis Center
06:15PM 36.3331 -91.4775 233° Southwest 348 400 40,000  Level Memphis Center
06:16PM 36.2778 -91.5747 235° Southwest 348 400 40,000  Level Memphis Center
06:17PM 36.2228 -91.6692 234° Southwest 348 400 40,000  Level Memphis Center
06:18PM 36.1653 -91.7633 233° Southwest 348 400 40,000  Level Memphis Center
06:19PM 36.1081 -91.8572 233° Southwest 348 400 40,000  Level Memphis Center
06:20PM 36.0525 -91.9539 235° Southwest 348 400 40,000  Level Memphis Center
06:21PM 35.9931 -92.0450 231° Southwest 347 399 40,000  Level Memphis Center
06:22PM 35.9481 -92.1314 237° Southwest 347 399 40,000  Level Memphis Center
06:23PM 35.8903 -92.2275 233° Southwest 353 406 40,000  Level Memphis Center
06:24PM 35.8325 -92.3208 233° Southwest 353 406 40,000  Level Memphis Center
06:25PM 35.7747 -92.4142 233° Southwest 353 406 40,000  Level Memphis Center
06:26PM 35.7189 -92.5100 234° Southwest 348 400 40,000  Level Memphis Center
06:27PM 35.6608 -92.6031 232° Southwest 348 400 40,000  Level Memphis Center
06:28PM 35.6031 -92.6958 233° Southwest 348 400 40,000  Level Memphis Center
06:29PM 35.5425 -92.7989 234° Southwest 355 409 40,000  Level Memphis Center
06:30PM 35.4844 -92.8967 234° Southwest 355 409 40,000  Level Memphis Center
06:31PM 35.4281 -92.9917 234° Southwest 355 409 40,000  Level Memphis Center
06:32PM 35.3697 -93.0867 233° Southwest 355 409 40,000  Level Memphis Center
06:33PM 35.3114 -93.1814 233° Southwest 355 409 40,000  Level Memphis Center
06:34PM 35.2508 -93.2708 230° Southwest 355 409 40,000  Level Memphis Center
06:35PM 35.1903 -93.3653 232° Southwest 350 403 40,000  Level Memphis Center
06:36PM 35.1317 -93.4572 232° Southwest 350 403 40,000  Level Memphis Center
06:37PM 35.0750 -93.5489 233° Southwest 350 403 40,000  Level Memphis Center
06:38PM 35.0144 -93.6381 230° Southwest 350 403 40,000  Level Memphis Center
06:39PM 34.9556 -93.7344 233° Southwest 356 410 40,000  Level Memphis Center
06:40PM 34.8964 -93.8308 233° Southwest 356 410 40,000  Level Memphis Center
06:42PM 34.7567 -94.0597 233° Southwest 341 392 40,000  Level Fort Worth Center
06:43PM 34.6964 -94.1531 232° Southwest 349 402 40,000 -540 Level Fort Worth Center
06:44PM 34.6406 -94.2461 234° Southwest 349 402 39,000 -1,440 Descending Fort Worth Center
06:45PM 34.5822 -94.3339 231° Southwest 349 402 37,200 -1,860 Descending Fort Worth Center
06:46PM 34.5278 -94.4189 232° Southwest 338 389 35,300 -1,200 Descending Fort Worth Center
06:47PM 34.4736 -94.5042 232° Southwest 333 383 34,800 -960 Descending Fort Worth Center
06:48PM 34.4211 -94.5839 231° Southwest 327 376 33,400 -1,440 Descending Fort Worth Center
06:49PM 34.3625 -94.6739 232° Southwest 327 376 32,000 -1,380 Descending Fort Worth Center
06:50PM 34.3039 -94.7636 232° Southwest 332 382 30,700 -1,320 Descending Fort Worth Center
06:51PM 34.2453 -94.8533 232° Southwest 339 390 29,400 -1,320 Descending Fort Worth Center
06:52PM 34.1847 -94.9506 233° Southwest 344 396 28,100 -1,320 Descending Fort Worth Center
06:53PM 34.1239 -95.0425 231° Southwest 355 409 26,800 -1,320 Descending Fort Worth Center
06:54PM 34.0631 -95.1344 231° Southwest 355 409 25,500 -1,320 Descending Fort Worth Center
06:55PM 33.9958 -95.2339 231° Southwest 365 420 24,200 -780 Descending Fort Worth Center
06:56PM 33.9289 -95.3383 232° Southwest 384 442 24,000 -120 Descending Fort Worth Center
06:57PM 33.8594 -95.4400 231° Southwest 389 448 24,000 -660 Level Fort Worth Center
06:58PM 33.7922 -95.5389 231° Southwest 394 453 22,700 -1,620 Descending Fort Worth Center
06:59PM 33.7331 -95.6353 234° Southwest 382 440 20,800 -1,920 Descending Fort Worth Center
07:00PM 33.6697 -95.7339 232° Southwest 377 434 18,900 -1,800 Descending Fort Worth Center
07:01PM 33.6042 -95.8322 231° Southwest 377 434 17,200 -1,860 Descending Fort Worth Center
07:02PM 33.5364 -95.9256 229° Southwest 377 434 15,200 -1,860 Descending Fort Worth Center
07:03PM 33.4831 -96.0064 232° Southwest 354 407 13,500 -1,800 Descending Fort Worth Center
07:04PM 33.4236 -96.0944 231° Southwest 326 375 11,600 -1,680 Descending Fort Worth Center
07:05PM 33.4006 -96.1425 240° Southwest 273 314 10,700 -1,260 Descending FAA TRACON SMA TRACON (SMA)
07:05PM 33.3872 -96.1642 234° Southwest 265 305 10,300 -1,380 Descending FAA TRACON SMA TRACON (SMA)
07:05PM 33.3681 -96.1892 227° Southwest 263 303 9,800 -1,200 Descending FAA TRACON SMA TRACON (SMA)
07:06PM 33.3553 -96.2106 234° Southwest 257 296 9,500 -1,080 Descending FAA TRACON SMA TRACON (SMA)
07:06PM 33.3403 -96.2311 229° Southwest 260 299 9,100 -780 Descending FAA TRACON SMA TRACON (SMA)
07:06PM 33.3222 -96.2558 229° Southwest 259 298 9,000 -180 Descending FAA TRACON SMA TRACON (SMA)
07:07PM 33.3081 -96.2758 230° Southwest 256 295 9,000  Level FAA TRACON SMA TRACON (SMA)
07:07PM 33.2950 -96.2967 233° Southwest 256 295 9,000  Level FAA TRACON SMA TRACON (SMA)
07:07PM 33.2772 -96.3225 231° Southwest 257 296 9,000  Level FAA TRACON SMA TRACON (SMA)
07:08PM 33.2625 -96.3428 229° Southwest 261 300 9,000  Level FAA TRACON SMA TRACON (SMA)
07:08PM 33.2489 -96.3633 232° Southwest 259 298 9,000 -780 Level FAA TRACON SMA TRACON (SMA)
07:08PM 33.2319 -96.3894 232° Southwest 256 295 8,500 -1,320 Descending FAA TRACON SMA TRACON (SMA)
07:09PM 33.2183 -96.4092 230° Southwest 250 288 8,100 -1,380 Descending FAA TRACON SMA TRACON (SMA)
07:09PM 33.2058 -96.4294 234° Southwest 246 283 7,600 -1,560 Descending FAA TRACON SMA TRACON (SMA)
07:09PM 33.1894 -96.4542 232° Southwest 246 283 7,100 -1,500 Descending FAA TRACON SMA TRACON (SMA)
07:10PM 33.1750 -96.4733 228° Southwest 250 288 6,600 -1,320 Descending FAA TRACON SMA TRACON (SMA)
07:10PM 33.1567 -96.4867 211° Southwest 256 295 6,200 -1,380 Descending FAA TRACON SMA TRACON (SMA)
07:10PM 33.1317 -96.4975 200° South 259 298 5,700 -1,620 Descending FAA TRACON SMA TRACON (SMA)
07:11PM 33.1094 -96.5089 203° Southwest 263 303 5,200 -1,080 Descending FAA TRACON SMA TRACON (SMA)
07:11PM 33.0889 -96.5192 203° Southwest 264 304 5,000 -300 Descending FAA TRACON SMA TRACON (SMA)
07:11PM 33.0625 -96.5314 201° Southwest 263 303 5,000  Level FAA TRACON SMA TRACON (SMA)
07:12PM 33.0428 -96.5419 204° Southwest 256 295 5,000  Level FAA TRACON SMA TRACON (SMA)
07:12PM 33.0228 -96.5517 202° Southwest 252 290 5,000  Level FAA TRACON SMA TRACON (SMA)
07:12PM 32.9989 -96.5622 200° South 250 288 5,000  Level FAA TRACON SMA TRACON (SMA)
07:13PM 32.9789 -96.5722 203° Southwest 250 288 5,000 -600 Level FAA TRACON SMA TRACON (SMA)
07:13PM 32.9592 -96.5831 205° Southwest 243 280 4,600 -1,380 Descending FAA TRACON SMA TRACON (SMA)
07:13PM 32.9367 -96.5939 202° Southwest 239 275 4,100 -1,380 Descending FAA TRACON SMA TRACON (SMA)
07:14PM 32.9186 -96.6031 203° Southwest 231 266 3,700 -1,200 Descending FAA TRACON SMA TRACON (SMA)
07:14PM 32.9006 -96.6125 204° Southwest 224 258 3,300 -1,080 Descending FAA TRACON SMA TRACON (SMA)
07:14PM 32.8794 -96.6228 202° Southwest 214 246 3,000 -480 Descending FAA TRACON SMA TRACON (SMA)
07:15PM 32.8611 -96.6308 200° South 219 252 3,000  Level FAA TRACON SMA TRACON (SMA)
07:15PM 32.8436 -96.6386 200° South 219 252 3,000  Level FAA TRACON SMA TRACON (SMA)
07:15PM 32.8292 -96.6497 213° Southwest 212 244 3,000  Level FAA TRACON SMA TRACON (SMA)
07:16PM 32.8108 -96.6664 217° Southwest 210 242 3,000  Level FAA TRACON SMA TRACON (SMA)
07:16PM 32.7975 -96.6789 218° Southwest 206 237 3,000  Level FAA TRACON SMA TRACON (SMA)
07:16PM 32.7811 -96.6939 218° Southwest 200 230 3,000  Level FAA TRACON SMA TRACON (SMA)
07:17PM 32.7706 -96.7100 232° Southwest 201 231 3,000  Level FAA TRACON SMA TRACON (SMA)
07:17PM 32.7678 -96.7258 258° West 188 216 3,000 -300 Level FAA TRACON SMA TRACON (SMA)
07:17PM 32.7717 -96.7433 285° West 166 191 2,800 -900 Descending FAA TRACON SMA TRACON (SMA)
07:18PM 32.7786 -96.7608 295° West 151 174 2,400 -900 Descending FAA TRACON SMA TRACON (SMA)
07:18PM 32.7861 -96.7719 309° West 145 167 2,200 -780 Descending FAA TRACON SMA TRACON (SMA)
07:18PM 32.7939 -96.7817 314° West 134 154 1,900 -1,080 Descending FAA TRACON SMA TRACON (SMA)
07:19PM 32.8017 -96.7908 315° West 118 136 1,500 -780 Descending FAA TRACON SMA TRACON (SMA)
07:19PM 32.8097 -96.7994 318° Northwest 111 128 1,400 -480 Descending FAA TRACON SMA TRACON (SMA)
07:19PM 32.8158 -96.8072 313° West 106 122 1,200 -600 Descending FAA TRACON SMA TRACON (SMA)
07:20PM 32.8236 -96.8161 316° Northwest 102 117 1,000 -600 Descending FAA TRACON SMA TRACON (SMA)
07:20PM 32.8303 -96.8239 316° Northwest 104 120 800 -600 Descending FAA TRACON SMA TRACON (SMA)
07:20PM 32.8369 -96.8325 313° West 105 121 600 -600 Descending FAA TRACON SMA TRACON (SMA)
07:21PM 32.8467 -96.8353 347° North 112 129 400 -600 Descending FAA TRACON SMA TRACON (SMA)
07:23PM 32.8333 -96.8500 298° West  Level FlightAware Approximate